This demonstration page uses our WeatherBlox Daily Observations layout. Learn more.

Left ArrowRight Arrow

44.8408, -93.29828

Hourly Observations for August 6, 2021

Temp ( °F °C ) Dew Point ( °F °C ) Humidity (%) Winds ( mph kmh ) Pressure ( in mb ) Visibility ( mi km ) Precip ( " mm )
12:07 am 00:07 Cloudy 73 22.8 70 21.1 90 90 SE 8 13 29.85 1011 7 11 0.00 0.00
12:53 am 00:53 Cloudy 71 21.7 68 20 90 90 SSE 5 7 29.87 1012 9 14 0.00 0.00
1:53 am 01:53 Cloudy 71 21.7 66 18.9 84 84 S 8 13 29.87 1012 10 16 0.00 0.00
2:53 am 02:53 Mostly Cloudy 70 21.1 67 19.4 90 90 S 5 7 29.85 1011 8 13 0.00 0.00
2:55 am 02:55 Mostly Cloudy 70 21.1 67 19.4 90 90 S 3 6 29.84 1011 8 13 0.00 0.00
3:19 am 03:19 Cloudy 70 21.1 67 19.4 90 90 W 5 7 29.84 1011 7 11 0.00 0.00
3:53 am 03:53 Cloudy 69 20.6 67 19.4 93 93 WNW 3 6 29.85 1011 7 11 0.00 0.00
4:53 am 04:53 Mostly Cloudy 69 20.6 68 20 96 96 NNW 5 7 29.86 1011 7 11 0.00 0.00
5:53 am 05:53 Partly Cloudy 68 20 66 18.9 93 93 NNW 6 9 29.87 1011 7 11 0.00 0.00
6:53 am 06:53 Mostly Cloudy 68 20 65 18.3 90 90 VRB 5 7 29.88 1012 8 13 0.00 0.00
7:53 am 07:53 Partly Cloudy 69 20.6 64 17.8 84 84 N 5 7 29.90 1012 8 13 0.00 0.00
8:53 am 08:53 Mostly Sunny 71 21.7 64 17.8 79 79 NNW 7 11 29.91 1013 8 13 0.00 0.00
9:53 am 09:53 Partly Cloudy 73 22.8 64 17.8 74 74 Calm 29.91 1013 8 13 0.00 0.00
10:08 am 10:08 Mostly Cloudy 73 22.8 64 17.8 74 74 Calm 29.90 1013 8 13 0.00 0.00
10:27 am 10:27 Mostly Cloudy 74 23.3 64 17.8 71 71 Calm 29.90 1012 8 13 0.00 0.00
10:53 am 10:53 Mostly Cloudy 75 23.9 64 17.8 69 69 E 3 6 29.92 1013 8 13 0.00 0.00
11:53 am 11:53 Partly Cloudy 77 25 63 17.2 62 62 WNW 6 9 29.91 1013 8 13 0.00 0.00
12:53 pm 12:53 Partly Cloudy 80 26.7 62 16.7 54 54 W 3 6 29.91 1013 8 13 0.00 0.00
1:53 pm 13:53 Partly Cloudy 81 27.2 62 16.7 53 53 N 8 13 29.90 1012 8 13 0.00 0.00
2:53 pm 14:53 Mostly Sunny 83 28.3 61 16.1 48 48 Calm 29.88 1012 7 11 0.00 0.00
3:53 pm 15:53 Mostly Sunny 83 28.3 61 16.1 48 48 VRB 3 6 29.88 1012 7 11 0.00 0.00
4:53 pm 16:53 Mostly Sunny 84 28.9 60 15.6 44 44 S 8 13 29.87 1012 7 11 0.00 0.00
5:53 pm 17:53 Mostly Sunny 85 29.4 57 13.9 39 39 Calm 29.86 1011 7 11 0.00 0.00
6:53 pm 18:53 Partly Cloudy 82 27.8 62 16.7 51 51 SE 8 13 29.86 1011 7 11 0.00 0.00
7:53 pm 19:53 Partly Cloudy 81 27.2 63 17.2 54 54 SE 7 11 29.86 1011 7 11 0.00 0.00
8:53 pm 20:53 Partly Cloudy 79 26.1 63 17.2 58 58 SE 9 15 29.87 1012 8 13 0.00 0.00
9:53 pm 21:53 Partly Cloudy 78 25.6 63 17.2 60 60 ESE 10 17 29.91 1013 8 13 0.00 0.00
10:53 pm 22:53 Partly Cloudy 76 24.4 63 17.2 64 64 ESE 12 19 29.91 1013 8 13 0.00 0.00
11:53 pm 23:53 Partly Cloudy 74 23.3 64 17.8 71 71 ESE 9 15 29.91 1013 8 13 0.00 0.00

Powered by AerisWeather